{"data":{"norad_id":69529,"intl_designator":"2026-133X","name":"STARLINK-37369","alt_names":[],"object_type":"PAYLOAD","status":"ACTIVE","operator":null,"country":"US","launch_date":"2026-06-12","launch_site_code":"AFETR","launch_vehicle":null,"mission":null,"orbit_class":"UNKNOWN","rcs_meters":null,"size_class":null,"mass_kg":null,"dimensions":null,"purposes":["comms"],"wikipedia_slug":null,"has_3d_model":false,"image_url":null,"decayed_at":null,"tle_current":{"epoch":"2026-09-19T22:47:55.019904Z","epoch_age_seconds":73028,"freshness":"FRESH","line1":"1 69529U 26133X   26262.94994236  .00020119  00000+0  60502-3 0  9998","line2":"2 69529  53.1552 231.9899 0001540  89.8272 270.2907 15.34398387 16680","mean_motion":15.34398387,"eccentricity":0.000154,"inclination_deg":53.1552,"raan_deg":231.9899,"arg_perigee_deg":89.8272,"mean_anomaly_deg":270.2907,"bstar":0.00060502,"rev_number":1668,"period_min":93.84785673657,"perigee_km":461.65454425193,"apogee_km":463.76152452253,"semimajor_km":6840.8450343872,"source":"CELESTRAK","updated_at":"2026-09-20T09:00:44.239675Z"}}}